Regional Weather Roundup
Issued by NWS Charleston, SC

Current Version | Previous Version | Graphics & Text | Print | Product List | Glossary On
Versions: 1 2 3 4 5 6 7 8 9 10 11 12 13 14 15 16 17 18 19 20 21 22 23 24 25 26 27 28 29 30 31 32 33 34 35 36 37 38 39 40 41 42 43 44 45 46 47 48 49 50
000 ASUS42 KCHS 232025 RWRCHS REGIONAL WEATHER ROUNDUP NATIONAL WEATHER SERVICE CHARLESTON SC 400 PM EDT THU OCT 23 2014 NOTE: "FAIR" INDICATES FEW OR NO CLOUDS BELOW 12,000 FEET WITH NO SIGNIFICANT WEATHER AND/OR OBSTRUCTIONS TO VISIBILITY. NOT ALL STATIONS ARE QUALITY CONTROLLED BY THE NATIONAL WEATHER SERVICE. USE DATA WITH CAUTION...ESPECIALLY DEWPOINT OBSERVATIONS. SCZ027-030-031-034>040-042>050-232100- ...SOUTH CAROLINA... CITY SKY/WX TMP DP RH WIND PRES REMARKS N CHARLESTON SUNNY 72 45 37 N6 29.99F WATERFRONT PRK N/A 70 N/A N/A W5G12 N/A FORT JOHNSON NOT AVBL JOHNS ISLAND CLEAR 72 46 40 CALM 29.99F PINOPOLIS NOT AVBL MONCKS CORNER FAIR 70 48 46 N5 29.99S SUMMERVILLE FAIR 70 45 40 W3 30.00S BEAUFORT MCAS SUNNY 70 45 40 NW7 30.00F BEAUFORT ARPT FAIR 68 46 45 NW5 30.00S HILTON HEAD IS SUNNY 68 48 49 NW7 30.02F GEORGETOWN NOT AVBL WALTERBORO CLEAR 70 37 30 N6 30.01S ORANGEBURG SUNNY 71 40 32 NW8 30.00S BARNWELL FAIR 72 39 30 NW5 30.00F AIKEN FAIR 70 45 40 NW5 30.03F MANNING FAIR 72 43 35 N7 29.98S KINGSTREE NOT AVBL COLUMBIA SUNNY 71 37 28 VRB6 29.99F SUMTER SUNNY 70 43 38 N9 29.97S FLORENCE SUNNY 70 41 34 NW12 29.97F MYRTLE BEACH SUNNY 70 43 37 NW9 29.96F N MYRTLE BEACH SUNNY 69 44 40 W10G18 29.95F $$ GAZ063-065-086>088-099>101-113>116-118-119-134-136>141-150-232100- ...GEORGIA... CITY SKY/WX TMP DP RH WIND PRES REMARKS SAVANNAH ARPT SUNNY 73 45 36 N7 30.00F HUNTER AAF SUNNY 71 46 41 W6 29.98F FORT STEWART SUNNY 71 45 38 N3 29.99F STATESBORO NOT AVBL SYLVANIA CLEAR 76 48 36 NW6 30.01F CLAXTON FAIR 72 45 37 CALM 30.00F THOMSON SUNNY 71 50 48 NW5 30.05F AUGUSTA-BUSH SUNNY 72 38 29 N7 30.00F AUGUSTA-DANIEL SUNNY 71 37 28 VRB6 30.01F SWAINSBORO FAIR 75 43 31 MISG 30.01F VIDALIA SUNNY 72 45 37 N3 30.01F ALMA SUNNY 73 42 32 SE5 30.00F WAYCROSS SUNNY 74 47 37 CALM 30.00F JESUP FAIR 75 46 35 CALM 30.00S BRUNSWICK SUNNY 72 41 33 W7 30.00F SAINT SIMONS SUNNY 70 49 47 E5 30.00F $$ SCZ027-028-034-036>038-045-046-048>050-GAZ119-141-232100- ...LAKE AND SUPPLEMENTAL COASTAL OBSERVATIONS... STATION/POSITION TIME TEMP WIND PRES WAVE SWELL AIR SEA DIR/SP/G HT/PER HT/PER/DIR (UTC) (F) (DEG/KT/KT) (MB) (FT/S) (FT/S/D) UPR LAKE MARION NOT AVBL WINYAH BAY 2000 67 300/ 6 1014.0S LAKE MURRAY 1900 69 250/ 3/ 7 1015.2F ACE BASIN NERRS 2000 70 300/ 2 1016.0S FORT PULASKI 2000 67 50/ 2/ 4 1016.1F SAPELO ISLAND NOT AVBL $$ ANZ835-935-AMZ111-154-330-350-352-354-374-450-454-472-232100- ...C-MAN AND BUOY OBSERVATIONS... STATION/POSITION TIME TEMP WIND PRES WAVE SWELL AIR SEA DIR/SP/G HT/PER HT/PER/DIR (UTC) (F) (DEG/KT/KT) (MB) (FT/S) (FT/S/D) FOLLY BEACH CMAN 2000 68 260/ 5/ 8 1016.0F BUOY 41004 2000 63 78 310/ 10/ 12 1015.2F 2/ 5 2/ 5 BUOY 41008 2000 65 75 360/ 6/ 10 1016.2F 2/ 5 2/ 50/ 5 5E ST. MARYS GA 2000 76 N/A 3/ 6 FRYING PAN BUOY 2000 64 74 270/ 16/ 19 1014.9F 2/ 4 2/110/10 BUOY 41025 2000 64 290/ 17/ 21 1011.1F 5/ 6 2/ 70/10 CAPE LOOKOUT NC 2000 66 280/ 12/ 14 1011.9F BUOY 41002 1854 71 78 300/ 14/ 17 1013.6 8/ 8 7/340/ 8 BUOY 41010 2000 74 81 10/ 8/ 12 1014.5S 3/ 7 3/ 7 BUOY 41012 NOT AVBL ST AUGUSTINE FL 2000 69 20/ 12/ 14 1016.0F CAPERS NEARSHORE NOT AVBL FRIPP NEARSHORE NOT AVBL $$

USA.gov is the U.S. government's official web portal to all federal, state and local government web resources and services.